Torna al catalogo

CP4

AttivoScienzaSSO
NORAD 31132·PAYLOAD·🇺🇸 United States

Lanciato Apr 17, 2007 da Baikonur Cosmodrome

Loading…

Prossimi Passaggi (prossime 24 ore)

TLE

AggiornatoSource: Space-Track

Epoca: Sep 14, 2026, 10:20 UTC

1 31132U 07012Q   26257.43110356  .00000922  00000-0  16865-3 0  9997
2 31132  98.4463 244.9052 0072041  45.1560 315.5466 14.66783768 33436

Traccia CP4 in tempo reale con AllMySat

Download on the App Store